Lid_Strength_Index
4 3 3 4 4 4 4 4 4 4 3 3 3 3 2 2 2 4 9 9 7 -0 -2 1 3 6 9 8 4 4 12 14 12 12 11 7 8 6 4 6 5 4 5 4 2
3 3 4 4 4 4 4 4 4 4 3 3 3 3 2 2 5 6 4 2 1 -2 6 7 7 8 10 10 8 8 12 12 9 8 9 8 7 7 7 7 7 6 4 3 2
3 3 4 4 4 4 4 4 4 4 4 4 4 3 2 3 8 8 -1 -1 -1 -1 7 8 7 9 11 9 9 8 11 8 8 7 7 8 8 6 7 9 7 7 5 4 3
4 3 4 4 4 3 3 4 4 4 4 4 4 3 2 6 12 4 -3 -3 -2 1 7 9 10 9 10 9 7 10 7 7 7 7 7 8 7 8 7 7 4 4 4 4 4
4 3 3 4 4 4 4 4 4 5 5 4 4 3 5 9 9 5 -2 -2 0 6 9 9 9 8 10 9 7 9 8 7 6 7 7 6 8 8 7 5 4 4 4 4 4
4 3 3 3 4 4 4 4 4 4 4 5 4 3 7 14 6 0 0 1 3 8 10 8 6 6 8 9 9 7 8 7 7 7 7 8 8 7 7 5 5 5 5 4 4
4 4 3 3 4 4 4 4 5 4 3 3 4 3 6 10 2 1 2 4 7 9 10 9 6 6 7 9 8 7 10 8 8 8 8 7 10 9 6 5 6 5 5 4 4
4 4 4 4 4 4 4 4 4 4 3 3 2 5 10 5 4 2 4 6 7 10 9 7 6 6 7 8 8 10 10 13 9 8 8 8 14 8 6 6 6 6 5 5 4
4 4 4 4 4 3 4 4 3 3 2 2 6 8 10 2 5 5 3 5 7 9 9 7 6 8 11 13 14 16 15 14 12 8 9 9 13 8 6 6 7 6 5 5 5
4 4 4 4 5 4 4 3 3 2 2 2 3 8 6 6 5 4 3 5 7 7 8 9 9 12 14 15 17 15 15 14 13 10 9 11 12 9 7 7 7 6 5 5 5
4 4 4 4 5 4 6 5 6 7 5 9 8 6 4 4 3 4 4 6 6 8 11 9 13 14 13 13 13 13 14 12 12 9 11 11 12 10 8 7 7 7 7 6 5
4 5 4 4 4 4 7 8 6 6 9 5 5 5 4 5 6 5 4 7 9 11 9 11 13 10 10 11 12 13 13 14 11 10 11 12 12 10 8 8 7 7 7 6 5
4 4 4 4 4 7 7 6 4 5 10 8 5 6 6 5 6 7 5 7 9 11 11 11 9 7 9 11 12 14 14 12 14 11 10 12 13 12 9 8 7 6 6 5 5
4 4 3 4 6 6 6 5 4 5 13 10 9 6 6 5 7 4 5 6 8 10 10 10 8 8 10 11 12 17 13 11 12 14 17 11 18 13 11 10 8 7 7 6 5
4 4 4 5 7 7 6 5 5 8 16 8 8 5 7 7 7 6 4 6 8 9 10 10 10 10 10 9 10 13 9 11 12 14 14 15 17 15 11 12 10 8 7 6 5
5 3 4 5 6 5 4 5 7 13 16 9 7 9 8 9 8 6 6 6 6 8 9 9 7 8 9 8 9 8 10 11 12 14 18 15 15 16 14 12 10 8 7 6 5
5 4 5 3 6 5 5 7 12 16 9 10 10 10 10 10 9 8 8 10 11 13 13 10 9 8 8 11 9 10 13 19 19 20 20 16 16 14 11 9 9 8 7 6 5
5 5 5 3 4 4 6 9 16 11 11 8 8 9 11 11 11 9 10 11 10 11 13 14 14 10 9 10 11 12 12 17 21 21 19 15 18 15 10 8 8 7 6 6 5
6 7 5 4 4 5 7 13 13 11 9 9 10 11 11 9 9 9 11 11 10 11 13 14 13 8 9 8 8 11 13 11 15 15 17 17 14 11 9 9 8 8 7 7 6
8 7 6 3 3 5 9 12 11 8 8 8 12 10 13 11 11 11 11 9 10 9 11 12 14 11 9 8 9 10 9 14 15 19 19 19 18 16 13 11 9 9 8 7 6
7 8 5 3 4 7 11 11 8 6 6 9 10 11 12 11 12 12 12 9 9 9 9 11 13 12 10 12 13 11 13 14 14 16 18 20 18 11 11 10 10 9 7 7 6
8 10 5 4 8 11 12 9 7 9 7 8 8 9 10 10 12 12 12 9 7 9 12 12 14 15 13 10 10 12 13 14 15 16 16 17 17 9 9 9 8 8 7 6 5
9 10 5 6 11 12 11 9 9 9 9 9 9 8 9 11 12 11 9 6 7 9 12 12 15 16 14 12 12 13 13 14 15 14 17 18 17 9 8 8 8 8 7 6 6
9 10 9 9 10 11 11 11 10 7 8 9 9 9 10 11 10 11 9 7 7 9 4 8 14 14 16 15 14 14 12 13 15 15 16 16 15 12 10 10 8 7 7 6 6
7 8 9 11 10 11 11 10 10 10 8 9 9 8 10 12 11 11 9 9 8 6 9 11 14 14 12 12 12 13 13 12 14 13 14 14 14 12 10 9 8 7 6 6 6
8 8 8 10 10 11 11 12 10 9 9 10 10 9 10 11 11 12 10 11 11 10 11 12 14 13 13 11 12 13 12 12 12 12 13 12 13 9 8 7 8 7 7 7 6
5 6 7 8 9 11 11 10 9 9 7 7 8 10 10 10 9 9 9 10 10 11 11 11 14 14 16 11 12 15 13 13 11 11 12 14 11 8 9 8 8 7 6 6 6